Terminal Aerodrome Forecast
Issued by NWS Wilmington, OH

Current Version | Previous Version | Text Only | Print | Product List | Glossary Off
Versions: 1 2 3 4 5 6 7 8 9 10 11 12 13 14 15 16 17 18 19 20 21

000
FTUS41 KILN 301200 AAB
TAFCMH
TAF AMD
KCMH 301257Z 3013/0112 23007KT 4SM HZ BKN015
      TEMPO 3013/3014 2SM BR OVC006
     FM301500 24010KT P6SM VCTS BKN040CB
      TEMPO 3018/3022 24010G20KT 3SM TSRA BR OVC020CB
     FM010000 25006KT P6SM SCT050 SCT100
     FM010900 29005KT 5SM BR FEW050=

USA.gov is the U.S. government's official web portal to all federal, state and local government web resources and services.